Change the Weather History Date:

Friday, January 29, 2010

  Actual Average Record
Temperature  
Mean Temperature 16 °F 32 °F  
Max Temperature 20 °F 40 °F 69 °F (1975)
Min Temperature 12 °F 24 °F -12 °F (1963)
Degree Days  
Heating Degree Days 49 33  
Month to date heating degree days 1003 979  
Since 1 July heating degree days 2763 2963  
Cooling Degree Days 0 0  
Month to date cooling degree days 0 0  
Year to date cooling degree days 0 0  
Moisture  
Dew Point 2 °F    
Average Humidity 53    
Maximum Humidity 61    
Minimum Humidity 45    
Precipitation  
Precipitation 0.00 in 0.09 in 1.44 in (1950)
Month to date precipitation 2.30 2.63  
Year to date precipitation 2.30 2.63  
Snow  
Snow 0.00 in - - ()
Month to date snowfall 0.0  
Snow Depth 0.00 in    
Sea Level Pressure  
Sea Level Pressure 30.41 in    
Wind  
Wind Speed 4 mph (NNW)    
Max Wind Speed 10 mph    
Max Gust Speed 16 mph    
Visibility 10 miles    
Events      
T = Trace of Precipitation, MM = Missing Value Source: NWS Daily Summary

Daily Weather History Graph

Daily Weather History Graph

Search for Another Location

Airport or City:

Trip Planner

Search our weather history database for the weather conditions in past years. The results will help you decide how hot, cold, wet, or windy it might be!

Date:

Astronomy

Jan. 29, 2010 Rise Set
Actual Time 7:30 AM EST 5:36 PM EST
Civil Twilight 7:01 AM EST 6:04 PM EST
Nautical Twilight 6:29 AM EST 6:37 PM EST
Astronomical Twilight 5:57 AM EST 7:08 PM EST
Moon 5:12 PM EST (1/29) 6:55 AM EST (1/29)
Length of Visible Light 11h 03m
Length of Day
10h 05m
Full, 100% of the Moon is Illuminated
Jan 29
Full
Jan 30
Full
Feb 5
Last Quarter
Feb 13
New
Feb 21
First Quarter

Hourly Weather History & Observations

Time (EST) Temp. Windchill Dew Point Humidity Pressure Visibility Wind Dir Wind Speed Gust Speed Precip Events Conditions
12:48 AM 15.8 °F 3.4 °F 3.2 °F 58% 30.34 in 10.0 mi NNW 10.4 mph - N/A   Overcast
12:53 AM 15.1 °F 3.3 °F 3.0 °F 59% 30.39 in 10.0 mi NNW 9.2 mph - N/A   Mostly Cloudy
1:06 AM 15.8 °F 6.1 °F 1.4 °F 53% 30.35 in 10.0 mi NNW 6.9 mph - N/A   Scattered Clouds
1:53 AM 15.1 °F 9.4 °F 1.9 °F 56% 30.41 in 10.0 mi NW 3.5 mph - N/A   Clear
2:53 AM 14.0 °F 6.5 °F 1.9 °F 59% 30.42 in 10.0 mi WNW 4.6 mph - N/A   Clear
3:53 AM 12.9 °F 5.2 °F 1.0 °F 59% 30.41 in 10.0 mi WNW 4.6 mph - N/A   Clear
4:53 AM 12.9 °F - 1.0 °F 59% 30.41 in 10.0 mi Calm Calm - N/A   Clear
5:53 AM 12.0 °F - 1.0 °F 61% 30.44 in 10.0 mi Calm Calm - N/A   Clear
6:53 AM 12.0 °F - 1.0 °F 61% 30.44 in 10.0 mi Calm Calm - N/A   Clear
7:53 AM 12.9 °F 6.9 °F 1.9 °F 62% 30.47 in 10.0 mi WNW 3.5 mph - N/A   Clear
8:53 AM 12.9 °F 6.9 °F 1.9 °F 62% 30.48 in 10.0 mi Variable 3.5 mph - N/A   Clear
9:53 AM 14.0 °F - 1.9 °F 59% 30.47 in 10.0 mi Calm Calm - N/A   Clear
10:53 AM 16.0 °F 8.8 °F 1.9 °F 54% 30.47 in 10.0 mi Variable 4.6 mph - N/A   Partly Cloudy
11:53 AM 16.0 °F 8.8 °F 3.0 °F 57% 30.48 in 10.0 mi North 4.6 mph - N/A   Scattered Clouds
12:53 PM 18.0 °F - 1.9 °F 50% 30.45 in 10.0 mi Calm Calm - N/A   Partly Cloudy
1:53 PM 19.0 °F 13.9 °F 1.9 °F 47% 30.43 in 10.0 mi Variable 3.5 mph - N/A   Clear
2:53 PM 19.0 °F 11.1 °F 1.9 °F 47% 30.43 in 10.0 mi WNW 5.8 mph - N/A   Clear
3:53 PM 19.9 °F - 3.0 °F 48% 30.42 in 10.0 mi Calm Calm - N/A   Clear
4:53 PM 19.9 °F 14.9 °F 3.0 °F 48% 30.40 in 10.0 mi Variable 3.5 mph - N/A   Clear
5:53 PM 19.0 °F 12.3 °F 3.0 °F 50% 30.40 in 10.0 mi North 4.6 mph - N/A   Clear
6:53 PM 18.0 °F 11.1 °F 3.0 °F 52% 30.40 in 10.0 mi North 4.6 mph - N/A   Clear
7:18 PM 17.6 °F 9.3 °F 3.2 °F 53% 30.33 in 10.0 mi North 5.8 mph - N/A   Mostly Cloudy
7:53 PM 17.1 °F 8.7 °F 3.0 °F 54% 30.40 in 10.0 mi North 5.8 mph - N/A   Overcast
8:24 PM 17.6 °F 10.7 °F 3.2 °F 53% 30.33 in 10.0 mi NNE 4.6 mph - N/A   Clear
8:53 PM 16.0 °F 6.3 °F 1.9 °F 54% 30.40 in 10.0 mi North 6.9 mph - N/A   Clear
9:53 PM 16.0 °F 8.8 °F 3.0 °F 57% 30.38 in 10.0 mi NNE 4.6 mph - N/A   Clear
10:53 PM 16.0 °F 6.3 °F 1.9 °F 54% 30.38 in 10.0 mi NNE 6.9 mph - N/A   Clear
11:53 PM 16.0 °F 8.8 °F 3.0 °F 57% 30.37 in 10.0 mi NE 4.6 mph - N/A   Clear